Location: Unspecified
(47.4992°N, 121.7766°W)
Time: 10:23:49
(UTC-07:00)

ISS - Visible Passes

Search period start: 23 September 2019 00:00
Search period end: 03 October 2019 00:00
Orbit: 411 x 421 km, 51.6° (Epoch: 23 September)

Date Brightness Start Highest point End Pass type
(mag) Time Alt. Az. Time Alt. Az. Time Alt. Az.
23 Sep -3.3 20:54:07 10° W 20:57:23 55° NNW 20:57:56 47° NNE visible
24 Sep -3.6 20:05:32 10° WSW 20:08:51 73° NNW 20:11:24 16° ENE visible
24 Sep -1.3 21:42:45 10° WNW 21:44:18 23° NW 21:44:18 23° NW visible
25 Sep -2.8 20:54:07 10° W 20:57:17 40° N 20:57:42 38° NNE visible
26 Sep -3.0 20:05:28 10° W 20:08:41 46° NNW 20:11:02 16° ENE visible
26 Sep -1.1 21:42:37 10° WNW 21:43:56 20° NW 21:43:56 20° NW visible
27 Sep -2.8 20:54:02 10° WNW 20:57:11 38° N 20:57:14 38° N visible
28 Sep -2.7 20:05:24 10° WNW 20:08:32 38° N 20:10:30 19° ENE visible
28 Sep -0.9 21:42:20 10° WNW 21:43:23 18° WNW 21:43:23 18° WNW visible
29 Sep -2.8 19:16:42 10° W 19:19:53 41° N 19:23:05 10° ENE visible
29 Sep -2.9 20:53:47 10° WNW 20:56:39 44° N 20:56:39 44° N visible
30 Sep -2.9 20:05:12 10° WNW 20:08:23 41° N 20:09:54 24° ENE visible
30 Sep -0.8 21:41:58 10° WNW 21:42:47 16° WNW 21:42:47 16° WNW visible
01 Oct -2.8 19:16:33 10° WNW 19:19:42 38° N 19:22:52 10° ENE visible
01 Oct -3.1 20:53:24 10° WNW 20:56:03 52° NW 20:56:03 52° NW visible
02 Oct -3.5 20:04:49 10° WNW 20:08:07 56° NNE 20:09:20 33° E visible
02 Oct -0.6 21:41:41 10° WNW 21:42:14 14° W 21:42:14 14° W visible
